SCP
0 0 0 0 0 0 0 0 0 0 0 0 0 0 0 0 0 0 0 0 -0 0 0 -0 -0 -0 -1 -0 -0 -0 0 0 0 0 0 0 0 0 0 0 0 0 0 -0 0 0 0 0 0
0 0 0 0 0 0 0 -0 0 0 0 0 0 0 0 0 0 0 0 0 -0 -0 0 -0 -0 -0 -0 -0 -0 0 0 0 0 0 0 0 0 0 0 0 0 0 -0 0 0 0 0 0 0
0 0 0 0 0 0 0 0 -0 0 0 0 0 0 0 0 0 0 0 0 0 -0 0 0 -0 -0 -0 -0 -0 0 0 0 0 0 0 0 0 0 0 0 0 0 -0 0 0 0 0 0 0
0 0 0 0 0 0 0 0 0 0 0 0 0 0 0 0 0 0 0 0 0 0 0 0 0 0 0 0 -0 0 0 0 0 0 0 0 0 0 0 0 0 -0 0 0 0 0 0 0 0
0 0 0 0 0 0 0 0 0 0 0 0 0 0 -0 0 -0 -0 -0 0 0 0 0 0 0 0 0 0 0 0 -0 0 0 0 0 0 0 0 0 0 0 -0 0 0 0 0 0 0 0
0 0 0 0 0 0 0 0 0 0 0 0 0 0 0 0 0 0 -0 -0 0 0 0 1 1 0 0 0 0 0 -0 -0 -0 0 0 0 0 0 0 0 0 -0 -0 0 0 0 0 0 0
0 0 0 0 0 0 0 0 0 0 0 0 0 0 0 0 0 0 0 -0 0 1 1 1 1 1 1 0 0 0 0 -0 -0 -0 -0 -0 -0 -0 -0 -0 -0 0 0 0 0 0 0 0 0
0 0 0 0 0 0 0 0 0 0 0 0 0 0 0 0 0 0 0 0 0 2 1 1 2 2 1 1 1 0 0 0 -0 -0 -0 -0 -0 -0 -0 -0 -0 -0 0 0 0 0 0 0 0
0 0 0 0 0 0 -0 -0 0 0 0 0 0 0 -0 -0 0 0 0 0 0 3 2 1 3 3 2 1 1 1 0 0 0 -0 -0 -0 -0 -0 -0 -0 -0 0 0 0 0 0 0 0 0
0 0 0 0 0 0 0 -0 0 0 0 0 0 0 0 0 0 0 0 0 0 1 2 1 1 2 2 2 1 1 1 1 0 0 -0 -0 -0 -0 -0 -0 -0 0 0 0 0 0 0 0 0
0 0 0 0 0 0 0 0 0 0 0 0 0 0 0 0 0 0 0 0 -0 0 0 1 1 2 1 2 2 2 1 1 0 0 0 0 -0 -0 -0 0 0 0 0 0 0 0 0 0 0
0 0 0 0 0 -0 0 0 0 -0 0 0 0 0 0 0 0 0 0 0 0 0 0 1 0 1 1 2 1 1 1 1 1 0 0 0 0 0 0 0 0 0 0 0 0 0 0 0 0
0 0 0 0 0 0 0 0 0 -0 -0 0 0 0 0 0 0 0 0 0 0 0 0 1 1 0 1 2 1 1 1 0 0 0 0 0 0 0 0 0 0 0 0 0 0 0 0 0 0
0 0 0 0 0 0 0 0 0 -0 0 0 0 0 0 0 0 0 0 0 0 0 0 1 2 1 1 2 1 1 0 0 0 1 1 1 0 0 0 0 0 0 0 0 0 0 0 0 0
0 0 0 0 0 0 0 0 0 0 0 0 0 0 0 0 0 0 0 0 0 0 0 3 4 3 1 4 4 3 1 1 1 1 1 0 1 0 0 0 0 0 0 0 0 0 0 0 0
0 0 0 0 0 0 0 0 0 0 0 0 0 0 0 0 0 0 0 0 0 0 0 0 3 5 2 3 3 3 3 2 1 1 1 1 0 1 0 1 1 0 0 0 0 0 0 0 0
0 0 0 0 0 0 0 0 0 0 0 0 0 0 0 0 0 0 0 0 0 0 0 1 3 4 4 5 7 6 3 4 3 2 3 1 1 1 2 1 1 1 0 1 0 0 0 0 0
0 0 0 0 0 0 0 0 0 0 0 0 0 0 0 0 0 0 0 0 0 0 0 0 2 5 3 5 6 7 7 6 4 2 3 2 2 1 2 2 2 1 1 1 0 0 0 0 0
0 0 0 0 0 -0 0 0 0 0 0 0 0 0 0 0 0 0 0 0 0 0 0 0 1 3 5 8 7 5 6 6 4 3 2 2 2 4 1 1 2 2 1 1 0 0 0 0 0
0 0 0 0 0 0 0 0 0 0 0 0 0 0 0 0 0 0 0 0 0 0 0 0 0 1 5 5 5 4 4 5 3 2 2 1 1 1 2 3 2 2 1 1 0 0 0 0 0
0 0 0 0 0 0 0 0 0 0 0 0 0 0 0 0 0 0 0 0 0 0 0 0 0 0 3 4 3 3 4 4 5 3 1 1 1 1 1 2 3 2 1 0 0 0 0 0 0
0 0 0 0 0 0 0 0 0 0 0 0 0 0 0 0 0 0 0 0 0 0 0 0 0 0 0 0 4 2 1 3 6 4 2 1 1 0 1 2 2 1 1 0 0 1 1 1 0
0 0 0 0 0 0 0 0 0 0 0 0 0 0 0 0 0 0 0 0 0 0 0 0 0 0 0 0 0 2 4 2 3 5 5 3 2 5 1 2 2 1 1 0 1 0 0 1 1
0 0 0 0 0 0 0 0 -0 0 0 -0 -0 0 0 0 0 0 0 0 0 0 0 0 0 0 0 0 0 0 0 1 2 2 1 1 1 0 1 4 2 1 1 1 1 1 3 2 0
0 0 0 0 0 0 0 0 0 0 -0 -0 0 0 0 0 0 0 0 0 0 0 0 0 0 0 0 0 0 0 0 1 1 1 2 2 1 0 0 0 2 2 1 1 1 1 0 0 0
0 0 0 0 0 0 0 0 0 0 0 0 0 0 0 0 0 0 0 0 0 0 0 0 0 0 0 0 0 0 0 0 0 0 0 0 1 0 0 0 0 1 1 0 0 0 0 0 0
0 0 0 0 0 0 0 0 0 0 0 0 0 0 0 0 0 0 0 0 0 0 0 0 0 0 0 0 0 0 0 0 0 0 0 0 1 1 2 0 0 0 0 0 0 0 -0 -0 -0
0 0 0 0 0 0 0 0 0 0 0 0 0 0 0 0 0 0 0 0 0 0 0 0 0 0 0 0 0 0 0 0 0 0 0 0 0 0 0 1 0 0 0 0 0 0 0 0 0
0 0 0 0 0 0 0 0 0 0 0 0 0 0 0 0 0 0 0 0 0 0 0 0 0 0 0 0 0 0 0 0 0 0 0 0 0 0 0 0 0 1 1 0 0 0 0 0 0
-0 0 0 0 0 0 0 0 0 0 0 0 0 0 0 0 0 0 0 0 0 0 0 0 0 0 0 0 0 0 0 0 0 0 0 0 0 0 0 1 0 1 1 1 1 1 1 1 1
Wind_Speed_500mb
21 25 18 15 5 3 9 19 19 32 18 12 32 34 35 32 15 16 13 28 20 35 43 52 49 50 53 51 47 42 37 36 38 38 39 42 40 37 36 34 32 31 29 27 25 24 22 22 23
18 27 12 5 5 3 11 33 23 8 21 19 18 39 45 32 59 40 30 18 17 19 39 53 52 52 54 54 48 44 41 39 38 40 40 42 42 38 36 34 32 30 26 25 23 22 21 20 20
21 19 9 6 7 11 13 8 5 21 27 38 13 12 26 22 34 23 15 13 15 11 29 51 55 56 59 59 52 46 41 41 39 40 41 42 41 39 36 33 30 27 24 22 20 18 18 17 16
15 9 12 2 17 29 29 21 20 19 24 16 26 17 44 30 19 30 8 13 4 7 29 46 55 58 62 66 62 52 47 44 41 40 40 41 40 37 34 32 29 25 22 18 16 14 13 13 11
17 12 4 7 16 23 31 34 8 14 24 37 22 13 39 38 37 27 23 9 12 14 20 47 55 59 62 67 66 62 55 49 45 41 39 39 38 35 32 29 25 22 18 15 12 10 9 8 6
12 8 6 11 17 32 33 41 13 5 19 38 30 12 30 29 31 20 14 23 28 25 20 50 56 61 64 68 66 64 57 54 49 44 42 39 37 34 30 27 23 19 15 12 9 6 4 2 1
11 5 14 20 30 38 37 34 16 16 13 23 21 9 17 22 23 19 11 5 23 44 33 49 58 62 65 65 68 66 62 55 50 47 44 41 38 34 31 26 22 17 13 10 8 6 7 7 7
31 6 26 27 27 35 51 26 32 26 18 30 6 4 7 15 15 12 21 6 11 55 47 41 60 67 69 68 65 65 61 57 51 48 47 44 39 35 31 27 22 17 13 11 10 10 13 14 15
42 19 24 30 35 32 69 15 37 39 28 41 24 18 24 18 4 10 17 21 11 56 52 40 62 68 72 71 67 63 60 57 53 49 48 45 41 36 32 26 22 19 16 16 15 16 20 21 22
21 20 33 18 21 29 55 45 37 12 15 28 27 42 6 5 12 15 9 23 30 47 53 40 55 68 72 73 72 68 66 62 57 52 48 45 41 37 31 26 23 20 20 21 22 23 27 27 28
38 33 22 30 56 71 64 62 64 22 16 28 39 36 21 12 19 15 6 12 5 32 16 44 38 58 71 73 72 70 69 66 61 56 51 47 43 39 34 30 28 25 23 27 29 29 34 32 29
25 43 50 51 66 60 32 54 42 37 44 81 63 45 14 8 8 1 3 5 5 1 18 44 41 39 65 68 64 66 67 68 65 61 54 52 48 44 38 34 29 27 21 17 22 24 25 27 22
21 25 54 60 68 69 62 45 36 34 23 52 30 29 32 25 21 19 13 15 22 25 24 27 50 44 49 70 55 46 58 64 65 62 59 56 52 48 43 38 30 23 22 18 17 20 19 17 19
28 38 38 58 54 53 28 39 33 34 32 17 20 31 43 40 38 35 34 32 17 27 33 30 50 46 52 62 55 42 39 49 61 61 61 59 56 52 50 43 36 31 25 22 24 28 31 34 34
39 18 20 24 19 11 25 24 37 34 41 42 29 31 38 39 36 36 36 43 40 26 24 47 41 40 42 55 39 43 43 37 47 61 59 58 57 54 50 48 43 38 34 33 33 35 40 38 41
16 16 11 14 15 26 12 39 28 41 47 50 40 42 50 43 53 48 36 38 33 30 38 41 49 51 46 50 45 42 37 46 44 39 43 47 48 45 49 52 49 42 39 43 48 47 49 50 54
11 17 18 23 28 28 26 48 27 44 49 43 42 39 53 65 44 41 36 30 47 46 55 36 36 59 58 51 57 66 48 48 38 55 34 44 42 44 44 44 51 49 44 44 40 47 48 48 49
17 16 22 31 32 26 46 45 40 48 50 32 34 28 8 15 24 23 16 39 51 48 52 43 45 43 59 58 57 63 80 64 61 42 51 59 40 42 43 48 52 55 53 52 49 52 58 56 55
33 34 36 25 24 26 17 16 11 12 12 17 35 32 25 27 24 14 22 44 45 39 45 53 43 39 54 60 60 68 76 83 79 75 58 53 57 52 50 57 55 54 56 54 50 51 60 56 59
28 24 16 16 29 22 21 16 12 11 12 24 32 38 49 48 42 35 39 41 33 32 33 34 32 47 40 58 60 65 69 60 73 75 76 83 63 52 57 61 68 61 59 49 43 45 54 63 60
17 11 11 23 30 29 16 14 8 11 22 49 65 59 45 64 56 57 60 49 40 32 27 34 28 29 52 51 58 61 54 54 46 55 57 47 45 48 75 71 70 60 61 60 48 44 52 59 63
16 17 28 31 19 11 8 13 14 10 22 26 56 71 65 45 56 63 68 63 53 41 36 36 34 31 27 42 54 63 64 70 63 81 73 65 60 55 52 73 74 61 61 61 51 48 43 54 58
22 18 24 9 13 12 19 9 15 13 30 37 22 55 73 69 57 45 67 59 41 35 30 32 25 28 32 29 31 49 60 80 75 67 72 67 54 95 74 53 56 40 54 55 48 52 37 39 52
17 6 15 15 5 11 13 12 39 29 34 37 20 44 42 42 40 39 39 41 40 28 30 22 22 20 21 26 31 32 33 38 49 60 60 66 54 63 68 73 67 54 52 57 50 58 56 62 83
15 4 5 7 10 23 11 20 42 21 33 45 27 50 44 34 35 47 49 43 36 34 24 20 17 9 11 9 15 20 28 32 36 42 49 59 62 72 79 76 77 77 70 83 87 87 86 84 98
38 4 6 11 9 16 19 11 15 13 29 36 38 44 43 43 44 44 45 42 35 27 32 32 22 22 14 14 20 21 28 30 32 36 38 42 57 58 53 68 89 91 97 84 97 98 111 112 110
20 11 19 18 19 4 8 20 30 36 15 14 23 30 28 29 39 36 42 38 37 44 43 42 39 35 34 31 31 43 47 44 41 40 35 36 38 46 60 60 55 64 78 73 62 76 76 82 89
12 12 9 2 8 11 12 21 15 19 10 10 10 21 28 19 29 31 39 38 45 44 45 41 30 29 31 31 30 34 38 38 39 44 45 45 45 44 54 53 55 58 63 57 53 50 47 75 108
13 8 5 14 9 9 6 10 9 11 18 19 15 21 10 19 24 27 32 28 28 33 32 24 17 12 24 33 35 36 38 40 32 37 39 43 47 51 58 61 64 68 68 70 67 70 65 71 80
8 13 9 1 7 9 7 20 5 9 17 27 36 31 30 29 37 22 29 36 45 48 49 46 39 36 28 19 26 39 45 47 42 47 45 46 48 49 57 59 64 61 62 65 71 68 64 76 81
Wind_Direction_500mb
330 340 330 328 45 114 247 253 256 287 306 0 44 73 87 69 127 121 156 137 136 159 157 154 154 151 149 149 149 149 146 146 140 137 139 139 137 135 131 125 120 115 110 108 104 99 96 94 91
326 330 341 263 125 292 265 239 252 333 10 356 60 94 71 70 91 95 129 136 114 138 161 156 157 153 151 149 151 151 149 145 141 140 140 137 135 132 127 122 118 115 112 109 105 101 97 95 92
312 317 305 171 193 223 243 52 306 347 36 357 356 25 94 108 88 92 100 134 132 130 173 160 160 157 154 152 153 153 150 147 147 145 143 139 136 133 129 125 122 120 117 112 107 103 99 94 94
316 307 249 149 261 264 256 285 351 356 356 20 351 74 80 115 99 110 89 127 145 172 177 167 164 162 158 156 154 157 155 154 153 151 147 142 139 136 132 131 131 128 123 119 116 112 105 99 96
282 264 256 258 259 265 272 268 33 337 334 335 356 66 98 85 98 110 123 231 207 207 185 176 168 165 164 160 160 160 159 160 159 157 153 149 145 143 140 140 138 135 134 134 134 131 121 111 102
263 236 249 264 264 260 267 256 167 180 319 317 337 318 83 90 96 99 96 191 242 216 192 181 173 170 168 166 166 166 167 165 165 164 161 158 155 152 152 151 147 148 150 155 163 171 162 170 152
215 253 251 249 257 270 272 260 179 173 179 276 332 24 90 85 79 67 96 83 225 219 201 188 178 174 173 174 172 173 173 172 171 171 169 168 165 165 164 165 162 167 175 187 201 231 251 257 266
234 231 258 255 260 264 268 264 195 175 208 211 357 302 133 89 61 86 69 64 283 209 193 195 184 179 178 178 180 179 180 179 179 179 178 176 175 177 178 179 179 187 201 222 241 260 274 278 278
247 238 244 246 257 270 282 289 195 203 247 231 177 239 130 76 43 79 64 39 95 203 186 188 191 186 184 182 183 186 187 187 188 189 186 184 184 186 190 191 196 208 223 242 259 275 281 283 292
223 241 239 254 267 275 280 286 280 228 213 257 244 220 188 110 166 139 68 3 62 183 183 181 195 195 190 188 187 188 191 193 195 197 195 192 193 196 199 205 214 228 245 258 270 280 281 289 297
238 244 253 248 244 256 266 275 283 240 143 251 262 247 250 121 125 125 104 88 317 114 204 196 195 202 199 194 193 193 194 197 200 202 202 200 202 204 208 213 225 235 254 269 277 282 287 291 292
240 245 240 252 260 260 260 280 290 294 196 211 218 243 256 318 44 193 231 224 241 88 209 206 203 197 206 206 200 202 200 201 205 205 206 210 208 212 213 224 228 240 250 270 286 279 289 285 283
255 257 255 252 248 259 268 273 277 288 299 212 181 207 237 266 260 269 266 271 237 258 203 204 205 198 202 213 205 212 217 211 210 211 211 214 216 219 220 226 234 243 247 258 282 283 285 297 294
269 259 255 256 255 256 256 268 285 281 287 213 230 236 235 237 263 268 236 250 221 203 216 203 201 202 194 204 207 214 226 230 222 217 219 219 222 224 228 231 236 243 252 269 279 289 298 303 310
294 296 295 283 287 262 300 291 269 274 281 282 267 273 218 223 248 246 245 245 228 205 207 201 189 203 196 193 189 205 215 225 229 226 223 229 230 229 229 231 237 244 253 262 271 276 277 285 292
306 296 289 285 285 278 241 261 276 267 260 265 271 264 265 252 232 240 246 243 225 211 216 186 193 196 196 198 209 202 210 219 230 234 228 231 234 237 235 239 241 240 243 244 245 256 262 269 278
265 261 261 270 242 245 209 248 245 242 268 271 258 254 255 246 227 216 221 230 224 199 199 203 192 203 197 199 208 211 214 207 218 220 232 242 239 242 242 242 249 251 249 250 253 259 260 267 274
255 244 244 248 260 247 235 239 230 219 231 259 258 232 211 210 205 211 232 218 205 199 198 216 216 206 206 206 212 214 216 203 208 206 203 229 234 239 244 252 255 255 254 255 260 261 263 272 285
248 265 271 279 297 326 276 204 175 232 259 271 254 231 232 236 236 207 204 202 204 203 211 218 226 219 211 213 217 214 216 214 218 212 214 232 237 242 250 254 253 255 254 257 264 271 270 275 287
266 265 285 306 307 305 294 280 237 220 254 275 277 256 223 222 220 204 208 193 198 206 213 233 228 219 215 217 215 215 219 223 225 242 236 232 235 244 249 250 260 260 261 260 272 280 280 283 283
292 296 308 293 295 294 301 300 253 265 264 260 264 262 252 223 209 201 205 204 205 215 217 222 231 222 217 223 226 219 217 220 215 215 220 237 242 256 247 255 255 262 257 258 269 276 279 288 297
287 291 284 262 274 261 358 281 276 272 282 264 248 243 244 231 215 207 204 208 209 199 200 225 243 245 236 221 225 225 232 226 235 241 244 241 235 263 253 251 252 262 263 262 276 271 273 277 293
266 267 273 314 322 343 301 323 289 273 273 275 265 219 228 229 228 222 206 197 180 179 189 208 230 247 246 234 227 226 232 237 236 231 245 243 241 230 260 241 245 250 258 263 277 268 273 285 302
279 322 347 339 353 292 265 242 280 263 260 270 257 188 150 136 135 153 156 159 165 184 188 199 229 251 249 237 235 237 235 236 242 237 225 235 241 249 247 245 246 257 270 277 269 272 265 269 290
234 128 286 311 288 254 259 274 255 287 267 260 250 145 143 152 155 154 164 166 179 181 195 210 208 224 226 278 278 262 254 250 247 251 239 238 232 236 242 245 252 256 268 275 273 269 264 272 277
307 124 238 201 221 279 320 229 254 266 320 68 109 135 149 150 156 163 177 185 195 207 196 198 202 183 196 244 265 268 269 265 261 266 267 261 253 250 253 254 251 252 255 256 267 263 266 273 255
203 217 219 270 273 357 228 262 276 273 317 116 125 129 138 150 157 158 180 188 190 192 198 194 204 221 251 271 280 271 271 271 271 267 261 261 263 259 260 258 266 258 252 251 254 266 261 254 254
185 168 220 342 193 224 236 245 270 50 27 345 8 142 134 149 165 170 189 174 182 191 187 199 233 250 258 261 273 287 274 271 278 271 267 262 257 253 255 255 253 253 256 252 244 247 248 262 259
343 327 327 188 188 196 289 257 204 89 44 2 58 0 35 137 175 167 158 174 193 195 192 199 219 260 270 272 270 273 276 272 272 272 272 272 266 255 246 249 253 252 258 255 248 237 236 238 256
23 51 91 257 211 267 211 252 252 93 60 28 357 342 309 334 330 251 239 233 214 217 224 227 224 234 240 255 281 280 277 265 258 270 264 271 274 272 266 255 256 259 257 256 248 245 245 246 248
Wind_Speed_850mb
21 25 18 15 5 3 9 19 19 32 18 12 32 34 35 32 15 16 13 28 20 35 43 52 49 50 53 51 47 42 37 36 38 38 39 42 40 37 36 34 32 31 29 27 25 24 22 22 23
18 27 12 5 5 3 11 33 23 8 21 19 18 39 45 32 59 40 30 18 17 19 39 53 52 52 54 54 48 44 41 39 38 40 40 42 42 38 36 34 32 30 26 25 23 22 21 20 20
21 19 9 6 7 11 13 8 5 21 27 38 13 12 26 22 34 23 15 13 15 11 29 51 55 56 59 59 52 46 41 41 39 40 41 42 41 39 36 33 30 27 24 22 20 18 18 17 16
15 9 12 2 17 29 29 21 20 19 24 16 26 17 44 30 19 30 8 13 4 7 29 46 55 58 62 66 62 52 47 44 41 40 40 41 40 37 34 32 29 25 22 18 16 14 13 13 11
17 12 4 7 16 23 31 34 8 14 24 37 22 13 39 38 37 27 23 9 12 14 20 47 55 59 62 67 66 62 55 49 45 41 39 39 38 35 32 29 25 22 18 15 12 10 9 8 6
12 8 6 11 17 32 33 41 13 5 19 38 30 12 30 29 31 20 14 23 28 25 20 50 56 61 64 68 66 64 57 54 49 44 42 39 37 34 30 27 23 19 15 12 9 6 4 2 1
11 5 14 20 30 38 37 34 16 16 13 23 21 9 17 22 23 19 11 5 23 44 33 49 58 62 65 65 68 66 62 55 50 47 44 41 38 34 31 26 22 17 13 10 8 6 7 7 7
31 6 26 27 27 35 51 26 32 26 18 30 6 4 7 15 15 12 21 6 11 55 47 41 60 67 69 68 65 65 61 57 51 48 47 44 39 35 31 27 22 17 13 11 10 10 13 14 15
42 19 24 30 35 32 69 15 37 39 28 41 24 18 24 18 4 10 17 21 11 56 52 40 62 68 72 71 67 63 60 57 53 49 48 45 41 36 32 26 22 19 16 16 15 16 20 21 22
21 20 33 18 21 29 55 45 37 12 15 28 27 42 6 5 12 15 9 23 30 47 53 40 55 68 72 73 72 68 66 62 57 52 48 45 41 37 31 26 23 20 20 21 22 23 27 27 28
38 33 22 30 56 71 64 62 64 22 16 28 39 36 21 12 19 15 6 12 5 32 16 44 38 58 71 73 72 70 69 66 61 56 51 47 43 39 34 30 28 25 23 27 29 29 34 32 29
25 43 50 51 66 60 32 54 42 37 44 81 63 45 14 8 8 1 3 5 5 1 18 44 41 39 65 68 64 66 67 68 65 61 54 52 48 44 38 34 29 27 21 17 22 24 25 27 22
21 25 54 60 68 69 62 45 36 34 23 52 30 29 32 25 21 19 13 15 22 25 24 27 50 44 49 70 55 46 58 64 65 62 59 56 52 48 43 38 30 23 22 18 17 20 19 17 19
28 38 38 58 54 53 28 39 33 34 32 17 20 31 43 40 38 35 34 32 17 27 33 30 50 46 52 62 55 42 39 49 61 61 61 59 56 52 50 43 36 31 25 22 24 28 31 34 34
39 18 20 24 19 11 25 24 37 34 41 42 29 31 38 39 36 36 36 43 40 26 24 47 41 40 42 55 39 43 43 37 47 61 59 58 57 54 50 48 43 38 34 33 33 35 40 38 41
16 16 11 14 15 26 12 39 28 41 47 50 40 42 50 43 53 48 36 38 33 30 38 41 49 51 46 50 45 42 37 46 44 39 43 47 48 45 49 52 49 42 39 43 48 47 49 50 54
11 17 18 23 28 28 26 48 27 44 49 43 42 39 53 65 44 41 36 30 47 46 55 36 36 59 58 51 57 66 48 48 38 55 34 44 42 44 44 44 51 49 44 44 40 47 48 48 49
17 16 22 31 32 26 46 45 40 48 50 32 34 28 8 15 24 23 16 39 51 48 52 43 45 43 59 58 57 63 80 64 61 42 51 59 40 42 43 48 52 55 53 52 49 52 58 56 55
33 34 36 25 24 26 17 16 11 12 12 17 35 32 25 27 24 14 22 44 45 39 45 53 43 39 54 60 60 68 76 83 79 75 58 53 57 52 50 57 55 54 56 54 50 51 60 56 59
28 24 16 16 29 22 21 16 12 11 12 24 32 38 49 48 42 35 39 41 33 32 33 34 32 47 40 58 60 65 69 60 73 75 76 83 63 52 57 61 68 61 59 49 43 45 54 63 60
17 11 11 23 30 29 16 14 8 11 22 49 65 59 45 64 56 57 60 49 40 32 27 34 28 29 52 51 58 61 54 54 46 55 57 47 45 48 75 71 70 60 61 60 48 44 52 59 63
16 17 28 31 19 11 8 13 14 10 22 26 56 71 65 45 56 63 68 63 53 41 36 36 34 31 27 42 54 63 64 70 63 81 73 65 60 55 52 73 74 61 61 61 51 48 43 54 58
22 18 24 9 13 12 19 9 15 13 30 37 22 55 73 69 57 45 67 59 41 35 30 32 25 28 32 29 31 49 60 80 75 67 72 67 54 95 74 53 56 40 54 55 48 52 37 39 52
17 6 15 15 5 11 13 12 39 29 34 37 20 44 42 42 40 39 39 41 40 28 30 22 22 20 21 26 31 32 33 38 49 60 60 66 54 63 68 73 67 54 52 57 50 58 56 62 83
15 4 5 7 10 23 11 20 42 21 33 45 27 50 44 34 35 47 49 43 36 34 24 20 17 9 11 9 15 20 28 32 36 42 49 59 62 72 79 76 77 77 70 83 87 87 86 84 98
38 4 6 11 9 16 19 11 15 13 29 36 38 44 43 43 44 44 45 42 35 27 32 32 22 22 14 14 20 21 28 30 32 36 38 42 57 58 53 68 89 91 97 84 97 98 111 112 110
20 11 19 18 19 4 8 20 30 36 15 14 23 30 28 29 39 36 42 38 37 44 43 42 39 35 34 31 31 43 47 44 41 40 35 36 38 46 60 60 55 64 78 73 62 76 76 82 89
12 12 9 2 8 11 12 21 15 19 10 10 10 21 28 19 29 31 39 38 45 44 45 41 30 29 31 31 30 34 38 38 39 44 45 45 45 44 54 53 55 58 63 57 53 50 47 75 108
13 8 5 14 9 9 6 10 9 11 18 19 15 21 10 19 24 27 32 28 28 33 32 24 17 12 24 33 35 36 38 40 32 37 39 43 47 51 58 61 64 68 68 70 67 70 65 71 80
8 13 9 1 7 9 7 20 5 9 17 27 36 31 30 29 37 22 29 36 45 48 49 46 39 36 28 19 26 39 45 47 42 47 45 46 48 49 57 59 64 61 62 65 71 68 64 76 81
Wind_Direction_850mb
330 340 330 328 45 114 247 253 256 287 306 0 44 73 87 69 127 121 156 137 136 159 157 154 154 151 149 149 149 149 146 146 140 137 139 139 137 135 131 125 120 115 110 108 104 99 96 94 91
326 330 341 263 125 292 265 239 252 333 10 356 60 94 71 70 91 95 129 136 114 138 161 156 157 153 151 149 151 151 149 145 141 140 140 137 135 132 127 122 118 115 112 109 105 101 97 95 92
312 317 305 171 193 223 243 52 306 347 36 357 356 25 94 108 88 92 100 134 132 130 173 160 160 157 154 152 153 153 150 147 147 145 143 139 136 133 129 125 122 120 117 112 107 103 99 94 94
316 307 249 149 261 264 256 285 351 356 356 20 351 74 80 115 99 110 89 127 145 172 177 167 164 162 158 156 154 157 155 154 153 151 147 142 139 136 132 131 131 128 123 119 116 112 105 99 96
282 264 256 258 259 265 272 268 33 337 334 335 356 66 98 85 98 110 123 231 207 207 185 176 168 165 164 160 160 160 159 160 159 157 153 149 145 143 140 140 138 135 134 134 134 131 121 111 102
263 236 249 264 264 260 267 256 167 180 319 317 337 318 83 90 96 99 96 191 242 216 192 181 173 170 168 166 166 166 167 165 165 164 161 158 155 152 152 151 147 148 150 155 163 171 162 170 152
215 253 251 249 257 270 272 260 179 173 179 276 332 24 90 85 79 67 96 83 225 219 201 188 178 174 173 174 172 173 173 172 171 171 169 168 165 165 164 165 162 167 175 187 201 231 251 257 266
234 231 258 255 260 264 268 264 195 175 208 211 357 302 133 89 61 86 69 64 283 209 193 195 184 179 178 178 180 179 180 179 179 179 178 176 175 177 178 179 179 187 201 222 241 260 274 278 278
247 238 244 246 257 270 282 289 195 203 247 231 177 239 130 76 43 79 64 39 95 203 186 188 191 186 184 182 183 186 187 187 188 189 186 184 184 186 190 191 196 208 223 242 259 275 281 283 292
223 241 239 254 267 275 280 286 280 228 213 257 244 220 188 110 166 139 68 3 62 183 183 181 195 195 190 188 187 188 191 193 195 197 195 192 193 196 199 205 214 228 245 258 270 280 281 289 297
238 244 253 248 244 256 266 275 283 240 143 251 262 247 250 121 125 125 104 88 317 114 204 196 195 202 199 194 193 193 194 197 200 202 202 200 202 204 208 213 225 235 254 269 277 282 287 291 292
240 245 240 252 260 260 260 280 290 294 196 211 218 243 256 318 44 193 231 224 241 88 209 206 203 197 206 206 200 202 200 201 205 205 206 210 208 212 213 224 228 240 250 270 286 279 289 285 283
255 257 255 252 248 259 268 273 277 288 299 212 181 207 237 266 260 269 266 271 237 258 203 204 205 198 202 213 205 212 217 211 210 211 211 214 216 219 220 226 234 243 247 258 282 283 285 297 294
269 259 255 256 255 256 256 268 285 281 287 213 230 236 235 237 263 268 236 250 221 203 216 203 201 202 194 204 207 214 226 230 222 217 219 219 222 224 228 231 236 243 252 269 279 289 298 303 310
294 296 295 283 287 262 300 291 269 274 281 282 267 273 218 223 248 246 245 245 228 205 207 201 189 203 196 193 189 205 215 225 229 226 223 229 230 229 229 231 237 244 253 262 271 276 277 285 292
306 296 289 285 285 278 241 261 276 267 260 265 271 264 265 252 232 240 246 243 225 211 216 186 193 196 196 198 209 202 210 219 230 234 228 231 234 237 235 239 241 240 243 244 245 256 262 269 278
265 261 261 270 242 245 209 248 245 242 268 271 258 254 255 246 227 216 221 230 224 199 199 203 192 203 197 199 208 211 214 207 218 220 232 242 239 242 242 242 249 251 249 250 253 259 260 267 274
255 244 244 248 260 247 235 239 230 219 231 259 258 232 211 210 205 211 232 218 205 199 198 216 216 206 206 206 212 214 216 203 208 206 203 229 234 239 244 252 255 255 254 255 260 261 263 272 285
248 265 271 279 297 326 276 204 175 232 259 271 254 231 232 236 236 207 204 202 204 203 211 218 226 219 211 213 217 214 216 214 218 212 214 232 237 242 250 254 253 255 254 257 264 271 270 275 287
266 265 285 306 307 305 294 280 237 220 254 275 277 256 223 222 220 204 208 193 198 206 213 233 228 219 215 217 215 215 219 223 225 242 236 232 235 244 249 250 260 260 261 260 272 280 280 283 283
292 296 308 293 295 294 301 300 253 265 264 260 264 262 252 223 209 201 205 204 205 215 217 222 231 222 217 223 226 219 217 220 215 215 220 237 242 256 247 255 255 262 257 258 269 276 279 288 297
287 291 284 262 274 261 358 281 276 272 282 264 248 243 244 231 215 207 204 208 209 199 200 225 243 245 236 221 225 225 232 226 235 241 244 241 235 263 253 251 252 262 263 262 276 271 273 277 293
266 267 273 314 322 343 301 323 289 273 273 275 265 219 228 229 228 222 206 197 180 179 189 208 230 247 246 234 227 226 232 237 236 231 245 243 241 230 260 241 245 250 258 263 277 268 273 285 302
279 322 347 339 353 292 265 242 280 263 260 270 257 188 150 136 135 153 156 159 165 184 188 199 229 251 249 237 235 237 235 236 242 237 225 235 241 249 247 245 246 257 270 277 269 272 265 269 290
234 128 286 311 288 254 259 274 255 287 267 260 250 145 143 152 155 154 164 166 179 181 195 210 208 224 226 278 278 262 254 250 247 251 239 238 232 236 242 245 252 256 268 275 273 269 264 272 277
307 124 238 201 221 279 320 229 254 266 320 68 109 135 149 150 156 163 177 185 195 207 196 198 202 183 196 244 265 268 269 265 261 266 267 261 253 250 253 254 251 252 255 256 267 263 266 273 255
203 217 219 270 273 357 228 262 276 273 317 116 125 129 138 150 157 158 180 188 190 192 198 194 204 221 251 271 280 271 271 271 271 267 261 261 263 259 260 258 266 258 252 251 254 266 261 254 254
185 168 220 342 193 224 236 245 270 50 27 345 8 142 134 149 165 170 189 174 182 191 187 199 233 250 258 261 273 287 274 271 278 271 267 262 257 253 255 255 253 253 256 252 244 247 248 262 259
343 327 327 188 188 196 289 257 204 89 44 2 58 0 35 137 175 167 158 174 193 195 192 199 219 260 270 272 270 273 276 272 272 272 272 272 266 255 246 249 253 252 258 255 248 237 236 238 256
23 51 91 257 211 267 211 252 252 93 60 28 357 342 309 334 330 251 239 233 214 217 224 227 224 234 240 255 281 280 277 265 258 270 264 271 274 272 266 255 256 259 257 256 248 245 245 246 248